Погода в Вольно-Надеждинском

Россия / Приморский край     43°22′18″N   131°59′23″E
темп.,
°C
ветер,
м/с
пор.,
м/с
влажн.,
%
обл.,
%
осадки,
мм/ч
давл.,
гПа
погр.,
м
16 мая, вс
вс1601:00+10ссв41091100 1.9 1010354
04:00+10с3591100 1.9 1009154
07:00+10ссз349198 0.0 100976
10:00+11с3580100 0.0 1008140
13:00+17с4645100 0.0 1006685
16:00+18с5643100 0.0 1004724
19:00+15св3362100 0.0 100339
22:00+13ссз2266100 0.0 100412
17 мая, пн
пн1701:00+11ссз2368100 0.0 100422
04:00+10с2270100 0.0 100423
07:00+10с227541 0.0 100536
10:00+15ссз235796 0.0 1006252
13:00+17сз124685 0.0 1006667
16:00+18юз3344100 0.0 1004575
19:00+14ююз48563 0.0 1005156
22:00+11ююв45691 0.0 100765
18 мая, вт
вт1801:00+10юв33750 0.0 100830
04:00+9юв11730 0.0 100816
07:00+10ю11750 0.0 100828
10:00+15ю34581 0.0 1009193
13:00+16ю465598 0.0 1008245
16:00+15ю686239 0.0 1007226
19:00+12ююв5782100 0.0 1007172
22:00+10ююв4692100 0.0 1009122
19 мая, ср
ср1901:00+10юв4697100 0.3 1010123
04:00+10ююв349846 1.9 100993
07:00+10ю2396100 0.1 101090
10:00+13ю228719 0.1 1010181
13:00+16ю337217 0.0 1010270
16:00+15ю457175 0.0 1009215
19:00+12ю4688100 0.0 1009162
22:00+12ююв349875 0.6 101283
20 мая, чт
чт2001:00+11ю339981 1.6 101254
04:00+10ю349999 1.9 1012102
07:00+10ю339743 0.0 101381
10:00+13ю358397 0.0 1012191
13:00+14ю5879100 0.0 1012260
16:00+14ю6984100 0.0 1012255
19:00+13ю4789100 0.0 1011179
22:00+11ююз3496100 0.0 101153